Year,Month,Day,Hour,Minute,Value (Times are PST for windspeed in km/hr)
2016,10,07,00,00,10.20
2016,10,07,00,01,4.40
2016,10,07,00,02,8.60
2016,10,07,00,03,12.00
2016,10,07,00,04,3.90
2016,10,07,00,05,10.90
2016,10,07,00,06,7.50
2016,10,07,00,07,7.80
2016,10,07,00,08,8.90
2016,10,07,00,09,5.80
2016,10,07,00,10,8.60
2016,10,07,00,11,13.30
2016,10,07,00,12,8.90
2016,10,07,00,13,7.70
2016,10,07,00,14,8.80
2016,10,07,00,15,2.70
2016,10,07,00,16,10.10
2016,10,07,00,17,12.40
2016,10,07,00,18,7.60
2016,10,07,00,19,8.10
2016,10,07,00,20,10.00
2016,10,07,00,21,7.70
2016,10,07,00,22,9.60
2016,10,07,00,23,11.00
2016,10,07,00,24,8.50
2016,10,07,00,25,13.90
2016,10,07,00,26,8.50
2016,10,07,00,27,6.60
2016,10,07,00,28,10.70
2016,10,07,00,29,6.90
2016,10,07,00,30,9.60
2016,10,07,00,31,11.00
2016,10,07,00,32,10.50
2016,10,07,00,33,7.30
2016,10,07,00,34,4.50
2016,10,07,00,35,7.90
2016,10,07,00,36,8.40
2016,10,07,00,37,7.70
2016,10,07,00,38,6.90
2016,10,07,00,39,3.60
2016,10,07,00,40,3.40
2016,10,07,00,41,8.40
2016,10,07,00,42,7.80
2016,10,07,00,43,10.30
2016,10,07,00,44,7.10
2016,10,07,00,45,7.20
2016,10,07,00,46,7.30
2016,10,07,00,47,8.10
2016,10,07,00,48,8.70
2016,10,07,00,49,4.70
2016,10,07,00,50,11.00
2016,10,07,00,51,8.30
2016,10,07,00,52,8.90
2016,10,07,00,53,6.50
2016,10,07,00,54,14.20
2016,10,07,00,55,11.60
2016,10,07,00,56,7.40
2016,10,07,00,57,7.20
2016,10,07,00,58,7.30
2016,10,07,00,59,7.10
2016,10,07,01,00,9.10
2016,10,07,01,01,5.50
2016,10,07,01,02,6.90
2016,10,07,01,03,6.90
2016,10,07,01,04,6.10
2016,10,07,01,05,10.00
2016,10,07,01,06,12.50
2016,10,07,01,07,8.80
2016,10,07,01,08,12.30
2016,10,07,01,09,11.30
2016,10,07,01,10,7.60
2016,10,07,01,11,9.40
2016,10,07,01,12,9.70
2016,10,07,01,13,10.70
2016,10,07,01,14,6.40
2016,10,07,01,15,5.80
2016,10,07,01,16,7.20
2016,10,07,01,17,7.60
2016,10,07,01,18,4.30
2016,10,07,01,19,6.40
2016,10,07,01,20,5.10
2016,10,07,01,21,5.00
2016,10,07,01,22,7.70
2016,10,07,01,23,6.30
2016,10,07,01,24,7.40
2016,10,07,01,25,5.70
2016,10,07,01,26,6.60
2016,10,07,01,27,5.00
2016,10,07,01,28,10.40
2016,10,07,01,29,5.80
2016,10,07,01,30,8.60
2016,10,07,01,31,7.00
2016,10,07,01,32,7.80
2016,10,07,01,33,6.30
2016,10,07,01,34,10.80
2016,10,07,01,35,9.90
2016,10,07,01,36,4.60
2016,10,07,01,37,4.10
2016,10,07,01,38,5.00
2016,10,07,01,39,4.20
2016,10,07,01,40,5.80
2016,10,07,01,41,5.20
2016,10,07,01,42,4.20
2016,10,07,01,43,8.40
2016,10,07,01,44,3.30
2016,10,07,01,45,7.10
2016,10,07,01,46,6.70
2016,10,07,01,47,9.30
2016,10,07,01,48,8.30
2016,10,07,01,49,5.30
2016,10,07,01,50,7.00
2016,10,07,01,51,12.10
2016,10,07,01,52,7.30
2016,10,07,01,53,4.00
2016,10,07,01,54,3.70
2016,10,07,01,55,5.40
2016,10,07,01,56,3.70
2016,10,07,01,57,6.70
2016,10,07,01,58,6.10
2016,10,07,01,59,3.50
2016,10,07,02,00,7.30
2016,10,07,02,01,7.10
2016,10,07,02,02,2.90
2016,10,07,02,03,7.50
2016,10,07,02,04,5.70
2016,10,07,02,05,2.70
2016,10,07,02,06,1.80
2016,10,07,02,07,2.80
2016,10,07,02,08,4.50
2016,10,07,02,09,5.60
2016,10,07,02,10,2.50
2016,10,07,02,11,1.70
2016,10,07,02,12,2.10
2016,10,07,02,13,3.80
2016,10,07,02,14,1.40
2016,10,07,02,15,2.60
2016,10,07,02,16,4.50
2016,10,07,02,17,4.20
2016,10,07,02,18,3.80
2016,10,07,02,19,0.10
2016,10,07,02,20,0.20
2016,10,07,02,21,5.60
2016,10,07,02,22,5.30
2016,10,07,02,23,0.20
2016,10,07,02,24,3.20
2016,10,07,02,25,0.50
2016,10,07,02,26,0.80
2016,10,07,02,27,0.00
2016,10,07,02,28,0.90
2016,10,07,02,29,0.80
2016,10,07,02,30,0.80
2016,10,07,02,31,0.00
2016,10,07,02,32,2.80
2016,10,07,02,33,0.10
2016,10,07,02,34,1.10
2016,10,07,02,35,0.70
2016,10,07,02,36,0.50
2016,10,07,02,37,0.00
2016,10,07,02,38,0.30
2016,10,07,02,39,0.90
2016,10,07,02,40,0.20
2016,10,07,02,41,0.80
2016,10,07,02,42,0.00
2016,10,07,02,43,0.20
2016,10,07,02,44,0.20
2016,10,07,02,45,1.70
2016,10,07,02,46,3.00
2016,10,07,02,47,4.90
2016,10,07,02,48,4.80
2016,10,07,02,49,3.80
2016,10,07,02,50,5.80
2016,10,07,02,51,6.80
2016,10,07,02,52,4.70
2016,10,07,02,53,0.50
2016,10,07,02,54,5.90
2016,10,07,02,55,9.20
2016,10,07,02,56,6.40
2016,10,07,02,57,6.70
2016,10,07,02,58,11.50
2016,10,07,02,59,7.40
2016,10,07,03,00,4.70
2016,10,07,03,01,5.30
2016,10,07,03,02,7.60
2016,10,07,03,03,8.90
2016,10,07,03,04,3.60
2016,10,07,03,05,4.40
2016,10,07,03,06,3.00
2016,10,07,03,07,5.10
2016,10,07,03,08,4.50
2016,10,07,03,09,8.80
2016,10,07,03,10,10.30
2016,10,07,03,11,7.00
2016,10,07,03,12,8.60
2016,10,07,03,13,5.80
2016,10,07,03,14,4.10
2016,10,07,03,15,8.60
2016,10,07,03,16,10.40
2016,10,07,03,17,7.60
2016,10,07,03,18,5.70
2016,10,07,03,19,9.90
2016,10,07,03,20,13.30
2016,10,07,03,21,5.50
2016,10,07,03,22,11.00
2016,10,07,03,23,8.80
2016,10,07,03,24,10.10
2016,10,07,03,25,8.40
2016,10,07,03,26,7.90
2016,10,07,03,27,6.90
2016,10,07,03,28,8.40
2016,10,07,03,29,10.50
2016,10,07,03,30,12.40
2016,10,07,03,31,6.30
2016,10,07,03,32,4.10
2016,10,07,03,33,7.00
2016,10,07,03,34,4.60
2016,10,07,03,35,13.90
2016,10,07,03,36,11.30
2016,10,07,03,37,8.70
2016,10,07,03,38,10.30
2016,10,07,03,39,8.90
2016,10,07,03,40,7.30
2016,10,07,03,41,11.70
2016,10,07,03,42,12.70
2016,10,07,03,43,13.30
2016,10,07,03,44,7.10
2016,10,07,03,45,8.40
2016,10,07,03,46,6.30
2016,10,07,03,47,4.40
2016,10,07,03,48,5.10
2016,10,07,03,49,11.20
2016,10,07,03,50,7.10
2016,10,07,03,51,7.40
2016,10,07,03,52,5.00
2016,10,07,03,53,11.00
2016,10,07,03,54,9.10
2016,10,07,03,55,10.40
2016,10,07,03,56,12.00
2016,10,07,03,57,9.80
2016,10,07,03,58,12.80
2016,10,07,03,59,10.30
2016,10,07,04,00,8.50
2016,10,07,04,01,7.40
2016,10,07,04,02,9.70
2016,10,07,04,03,9.10
2016,10,07,04,04,9.10
2016,10,07,04,05,8.50
2016,10,07,04,06,9.60
2016,10,07,04,07,7.20
2016,10,07,04,08,11.50
2016,10,07,04,09,5.90
2016,10,07,04,10,2.30
2016,10,07,04,11,11.10
2016,10,07,04,12,10.10
2016,10,07,04,13,12.00
2016,10,07,04,14,10.00
2016,10,07,04,15,8.70
2016,10,07,04,16,11.60
2016,10,07,04,17,11.80
2016,10,07,04,18,10.00
2016,10,07,04,19,14.30
2016,10,07,04,20,12.10
2016,10,07,04,21,6.40
2016,10,07,04,22,10.80
2016,10,07,04,23,10.60
2016,10,07,04,24,8.20
2016,10,07,04,25,12.60
2016,10,07,04,26,13.10
2016,10,07,04,27,12.60
2016,10,07,04,28,12.50
2016,10,07,04,29,7.80
2016,10,07,04,30,9.70
2016,10,07,04,31,8.90
2016,10,07,04,32,7.40
2016,10,07,04,33,7.60
2016,10,07,04,34,12.20
2016,10,07,04,35,8.40
2016,10,07,04,36,15.70
2016,10,07,04,37,11.70
2016,10,07,04,38,15.20
2016,10,07,04,39,6.50
2016,10,07,04,40,7.40
2016,10,07,04,41,6.10
2016,10,07,04,42,7.90
2016,10,07,04,43,8.20
2016,10,07,04,44,10.00
2016,10,07,04,45,11.60
2016,10,07,04,46,10.90
2016,10,07,04,47,12.30
2016,10,07,04,48,14.60
2016,10,07,04,49,9.70
2016,10,07,04,50,12.90
2016,10,07,04,51,10.80
2016,10,07,04,52,9.70
2016,10,07,04,53,9.80
2016,10,07,04,54,17.30
2016,10,07,04,55,15.70
2016,10,07,04,56,12.70
2016,10,07,04,57,11.60
2016,10,07,04,58,10.30
2016,10,07,04,59,12.80
2016,10,07,05,00,7.30
2016,10,07,05,01,8.60
2016,10,07,05,02,8.90
2016,10,07,05,03,11.80
2016,10,07,05,04,10.10
2016,10,07,05,05,8.00
2016,10,07,05,06,13.20
2016,10,07,05,07,11.80
2016,10,07,05,08,14.70
2016,10,07,05,09,11.80
2016,10,07,05,10,9.70
2016,10,07,05,11,10.50
2016,10,07,05,12,10.00
2016,10,07,05,13,8.80
2016,10,07,05,14,10.30
2016,10,07,05,15,17.60
2016,10,07,05,16,10.50
2016,10,07,05,17,16.90
2016,10,07,05,18,12.30
2016,10,07,05,19,11.40
2016,10,07,05,20,8.70
2016,10,07,05,21,13.00
2016,10,07,05,22,10.50
2016,10,07,05,23,15.20
2016,10,07,05,24,15.40
2016,10,07,05,25,16.40
2016,10,07,05,26,9.20
2016,10,07,05,27,8.20
2016,10,07,05,28,15.50
2016,10,07,05,29,12.70
2016,10,07,05,30,15.30
2016,10,07,05,31,7.70
2016,10,07,05,32,11.30
2016,10,07,05,33,8.30
2016,10,07,05,34,11.10
2016,10,07,05,35,16.20
2016,10,07,05,36,12.20
2016,10,07,05,37,13.90
2016,10,07,05,38,7.30
2016,10,07,05,39,14.40
2016,10,07,05,40,19.40
2016,10,07,05,41,11.90
2016,10,07,05,42,17.00
2016,10,07,05,43,13.30
2016,10,07,05,44,10.40
2016,10,07,05,45,12.40
2016,10,07,05,46,13.00
2016,10,07,05,47,14.50
2016,10,07,05,48,14.10
2016,10,07,05,49,18.90
2016,10,07,05,50,12.90
2016,10,07,05,51,11.00
2016,10,07,05,52,9.80
2016,10,07,05,53,15.50
2016,10,07,05,54,14.50
2016,10,07,05,55,11.30
2016,10,07,05,56,9.70
2016,10,07,05,57,11.10
2016,10,07,05,58,10.40
2016,10,07,05,59,11.30
2016,10,07,06,00,9.90
2016,10,07,06,01,7.00
2016,10,07,06,02,16.20
2016,10,07,06,03,14.50
2016,10,07,06,04,9.20
2016,10,07,06,05,14.30
2016,10,07,06,06,22.10
2016,10,07,06,07,13.30
2016,10,07,06,08,10.00
2016,10,07,06,09,13.20
2016,10,07,06,10,10.50
2016,10,07,06,11,12.70
2016,10,07,06,12,15.30
2016,10,07,06,13,8.20
2016,10,07,06,14,11.20
2016,10,07,06,15,15.20
2016,10,07,06,16,10.30
2016,10,07,06,17,9.00
2016,10,07,06,18,10.10
2016,10,07,06,19,11.00
2016,10,07,06,20,11.40
2016,10,07,06,21,13.20
2016,10,07,06,22,15.30
2016,10,07,06,23,12.50
2016,10,07,06,24,12.90
2016,10,07,06,25,11.90
2016,10,07,06,26,14.40
2016,10,07,06,27,8.30
2016,10,07,06,28,11.20
2016,10,07,06,29,11.30
2016,10,07,06,30,10.50
2016,10,07,06,31,12.90
2016,10,07,06,32,7.00
2016,10,07,06,33,9.40
2016,10,07,06,34,11.70
2016,10,07,06,35,10.40
2016,10,07,06,36,16.50
2016,10,07,06,37,13.00
2016,10,07,06,38,9.30
2016,10,07,06,39,13.90
2016,10,07,06,40,11.90
2016,10,07,06,41,13.10
2016,10,07,06,42,13.20
2016,10,07,06,43,9.60
2016,10,07,06,44,6.50
2016,10,07,06,45,8.60
2016,10,07,06,46,9.80
2016,10,07,06,47,12.00
2016,10,07,06,48,10.80
2016,10,07,06,49,9.00
2016,10,07,06,50,7.10
2016,10,07,06,51,14.10
2016,10,07,06,52,12.00
2016,10,07,06,53,12.60
2016,10,07,06,54,7.70
2016,10,07,06,55,11.10
2016,10,07,06,56,14.60
2016,10,07,06,57,7.50
2016,10,07,06,58,11.00
2016,10,07,06,59,10.70
2016,10,07,07,00,9.80
2016,10,07,07,01,7.80
2016,10,07,07,02,10.20
2016,10,07,07,03,10.10
2016,10,07,07,04,7.70
2016,10,07,07,05,5.80
2016,10,07,07,06,12.80
2016,10,07,07,07,12.30
2016,10,07,07,08,5.00
2016,10,07,07,09,10.50
2016,10,07,07,10,10.40
2016,10,07,07,11,6.80
2016,10,07,07,12,8.50
2016,10,07,07,13,7.20
2016,10,07,07,14,12.20
2016,10,07,07,15,8.50
2016,10,07,07,16,12.70
2016,10,07,07,17,10.40
2016,10,07,07,18,12.90
2016,10,07,07,19,9.20
2016,10,07,07,20,11.70
2016,10,07,07,21,7.60
2016,10,07,07,22,10.20
2016,10,07,07,23,9.10
2016,10,07,07,24,9.40
2016,10,07,07,25,9.30
2016,10,07,07,26,14.60
2016,10,07,07,27,7.50
2016,10,07,07,28,6.10
2016,10,07,07,29,13.00
2016,10,07,07,30,12.50
2016,10,07,07,31,10.70
2016,10,07,07,32,12.20
2016,10,07,07,33,6.10
2016,10,07,07,34,4.70
2016,10,07,07,35,11.30
2016,10,07,07,36,9.00
2016,10,07,07,37,6.10
2016,10,07,07,38,8.70
2016,10,07,07,39,9.10
2016,10,07,07,40,10.00
2016,10,07,07,41,9.10
2016,10,07,07,42,6.00
2016,10,07,07,43,3.60
2016,10,07,07,44,7.90
2016,10,07,07,45,11.30
2016,10,07,07,46,6.50
2016,10,07,07,47,6.60
2016,10,07,07,48,8.60
2016,10,07,07,49,6.50
2016,10,07,07,50,8.30
2016,10,07,07,51,11.00
2016,10,07,07,52,11.00
2016,10,07,07,53,8.50
2016,10,07,07,54,7.50
2016,10,07,07,55,8.00
2016,10,07,07,56,8.10
2016,10,07,07,57,7.70
2016,10,07,07,58,7.30
2016,10,07,07,59,4.80
2016,10,07,08,00,10.00
2016,10,07,08,01,9.20
2016,10,07,08,02,8.70
2016,10,07,08,03,7.50
2016,10,07,08,04,5.10
2016,10,07,08,05,6.50
2016,10,07,08,06,9.70
2016,10,07,08,07,10.70
2016,10,07,08,08,9.50
2016,10,07,08,09,10.80
2016,10,07,08,10,7.70
2016,10,07,08,11,12.30
2016,10,07,08,12,4.40
2016,10,07,08,13,12.60
2016,10,07,08,14,10.40
2016,10,07,08,15,8.10
2016,10,07,08,16,7.70
2016,10,07,08,17,11.50
2016,10,07,08,18,9.40
2016,10,07,08,19,11.70
2016,10,07,08,20,12.80
2016,10,07,08,21,9.70
2016,10,07,08,22,11.10
2016,10,07,08,23,12.00
2016,10,07,08,24,9.70
2016,10,07,08,25,8.40
2016,10,07,08,26,9.40
2016,10,07,08,27,12.40
2016,10,07,08,28,11.70
2016,10,07,08,29,8.20
2016,10,07,08,30,8.70
2016,10,07,08,31,6.30
2016,10,07,08,32,10.90
2016,10,07,08,33,10.80
2016,10,07,08,34,10.70
2016,10,07,08,35,9.60
2016,10,07,08,36,8.20
2016,10,07,08,37,8.80
2016,10,07,08,38,10.70
2016,10,07,08,39,9.90
2016,10,07,08,40,14.10
2016,10,07,08,41,9.40
2016,10,07,08,42,7.90
2016,10,07,08,43,13.80
2016,10,07,08,44,8.40
2016,10,07,08,45,10.50
2016,10,07,08,46,10.70
2016,10,07,08,47,7.90
2016,10,07,08,48,7.20
2016,10,07,08,49,11.70
2016,10,07,08,50,9.20
2016,10,07,08,51,6.70
2016,10,07,08,52,9.00
2016,10,07,08,53,7.00
2016,10,07,08,54,11.00
2016,10,07,08,55,9.70
2016,10,07,08,56,8.70
2016,10,07,08,57,11.60
2016,10,07,08,58,10.00
2016,10,07,08,59,9.70
2016,10,07,09,00,10.60
2016,10,07,09,01,11.50
2016,10,07,09,02,9.70
2016,10,07,09,03,9.40
2016,10,07,09,04,13.90
2016,10,07,09,05,12.00
2016,10,07,09,06,12.30
2016,10,07,09,07,12.50
2016,10,07,09,08,10.90
2016,10,07,09,09,11.50
2016,10,07,09,10,7.10
2016,10,07,09,11,8.10
2016,10,07,09,12,10.70
2016,10,07,09,13,3.00
2016,10,07,09,14,4.80
2016,10,07,09,15,4.30
2016,10,07,09,16,8.40
2016,10,07,09,17,7.60
2016,10,07,09,18,8.30
2016,10,07,09,19,10.00
2016,10,07,09,20,8.30
2016,10,07,09,21,8.80
2016,10,07,09,22,12.30
2016,10,07,09,23,9.10
2016,10,07,09,24,5.90
2016,10,07,09,25,4.80
2016,10,07,09,26,6.20
2016,10,07,09,27,6.10
2016,10,07,09,28,8.60
2016,10,07,09,29,10.40
2016,10,07,09,30,12.90
2016,10,07,09,31,6.90
2016,10,07,09,32,7.70
2016,10,07,09,33,14.00
2016,10,07,09,34,15.40
2016,10,07,09,35,8.60
2016,10,07,09,36,8.10
2016,10,07,09,37,8.60
2016,10,07,09,38,8.50
2016,10,07,09,39,4.80
2016,10,07,09,40,7.10
2016,10,07,09,41,8.70
2016,10,07,09,42,7.40
2016,10,07,09,43,5.50
2016,10,07,09,44,6.40
2016,10,07,09,45,5.80
2016,10,07,09,46,5.70
2016,10,07,09,47,11.90
2016,10,07,09,48,13.30
2016,10,07,09,49,5.60
2016,10,07,09,50,7.30
2016,10,07,09,51,14.50
2016,10,07,09,52,8.00
2016,10,07,09,53,12.40
2016,10,07,09,54,6.30
2016,10,07,09,55,7.10
2016,10,07,09,56,5.30
2016,10,07,09,57,11.80
2016,10,07,09,58,6.10
2016,10,07,09,59,7.30
2016,10,07,10,00,10.20
2016,10,07,10,01,7.80
2016,10,07,10,02,9.80
2016,10,07,10,03,8.90
2016,10,07,10,04,4.40
2016,10,07,10,05,3.70
2016,10,07,10,06,6.50
2016,10,07,10,07,9.60
2016,10,07,10,08,6.30
2016,10,07,10,09,8.60
2016,10,07,10,10,10.50
2016,10,07,10,11,8.60
2016,10,07,10,12,6.20
2016,10,07,10,13,9.20
2016,10,07,10,14,5.00
2016,10,07,10,15,5.80
2016,10,07,10,16,7.50
2016,10,07,10,17,9.10
2016,10,07,10,18,4.50
2016,10,07,10,19,2.60
2016,10,07,10,20,8.20
2016,10,07,10,21,4.10
2016,10,07,10,22,5.50
2016,10,07,10,23,4.00
2016,10,07,10,24,10.20
2016,10,07,10,25,6.70
2016,10,07,10,26,6.70
2016,10,07,10,27,7.00
2016,10,07,10,28,5.70
2016,10,07,10,29,6.40
2016,10,07,10,30,7.50
2016,10,07,10,31,5.40
2016,10,07,10,32,6.90
2016,10,07,10,33,6.20
2016,10,07,10,34,7.30
2016,10,07,10,35,6.00
2016,10,07,10,36,10.00
2016,10,07,10,37,9.50
2016,10,07,10,38,10.80
2016,10,07,10,39,9.70
2016,10,07,10,40,9.70
2016,10,07,10,41,12.20
2016,10,07,10,42,9.10
2016,10,07,10,43,13.10
2016,10,07,10,44,13.00
2016,10,07,10,45,11.60
2016,10,07,10,46,13.60
2016,10,07,10,47,7.60
2016,10,07,10,48,11.90
2016,10,07,10,49,10.00
2016,10,07,10,50,5.60
2016,10,07,10,51,6.40
2016,10,07,10,52,8.40
2016,10,07,10,53,14.70
2016,10,07,10,54,7.20
2016,10,07,10,55,4.70
2016,10,07,10,56,3.80
2016,10,07,10,57,5.60
2016,10,07,10,58,9.50
2016,10,07,10,59,7.70
2016,10,07,11,00,5.90
2016,10,07,11,01,1.70
2016,10,07,11,02,4.00
2016,10,07,11,03,7.90
2016,10,07,11,04,6.10
2016,10,07,11,05,5.40
2016,10,07,11,06,6.50
2016,10,07,11,07,3.10
2016,10,07,11,08,7.90
2016,10,07,11,09,9.20
2016,10,07,11,10,5.10
2016,10,07,11,11,4.70
2016,10,07,11,12,7.10
2016,10,07,11,13,6.00
2016,10,07,11,14,0.80
2016,10,07,11,15,3.90
2016,10,07,11,16,0.20
2016,10,07,11,17,1.80
2016,10,07,11,18,3.50
2016,10,07,11,19,4.80
2016,10,07,11,20,8.70
2016,10,07,11,21,5.40
2016,10,07,11,22,6.50
2016,10,07,11,23,5.60
2016,10,07,11,24,4.90
2016,10,07,11,25,3.00
2016,10,07,11,26,9.50
2016,10,07,11,27,2.70
2016,10,07,11,28,3.90
2016,10,07,11,29,5.70
2016,10,07,11,30,4.80
2016,10,07,11,31,7.10
2016,10,07,11,32,10.90
2016,10,07,11,33,11.10
2016,10,07,11,34,2.30
2016,10,07,11,35,3.50
2016,10,07,11,36,7.90
2016,10,07,11,37,4.70
2016,10,07,11,38,1.10
2016,10,07,11,39,1.30
2016,10,07,11,40,7.50
2016,10,07,11,41,1.90
2016,10,07,11,42,7.80
2016,10,07,11,43,3.10
2016,10,07,11,44,2.70
2016,10,07,11,45,4.30
2016,10,07,11,46,2.20
2016,10,07,11,47,2.10
2016,10,07,11,48,3.10
2016,10,07,11,49,6.10
2016,10,07,11,50,8.00
2016,10,07,11,51,6.50
2016,10,07,11,52,5.60
2016,10,07,11,53,4.60
2016,10,07,11,54,5.00
2016,10,07,11,55,2.30
2016,10,07,11,56,2.30
2016,10,07,11,57,7.00
2016,10,07,11,58,3.10
2016,10,07,11,59,1.90
2016,10,07,12,00,3.20
2016,10,07,12,01,2.30
2016,10,07,12,02,3.10
2016,10,07,12,03,6.10
2016,10,07,12,04,1.10
2016,10,07,12,05,1.80
2016,10,07,12,06,5.90
2016,10,07,12,07,6.70
2016,10,07,12,08,1.80
2016,10,07,12,09,6.40
2016,10,07,12,10,6.20
2016,10,07,12,11,7.80
2016,10,07,12,12,1.50
2016,10,07,12,13,2.80
2016,10,07,12,14,3.20
2016,10,07,12,15,1.00
2016,10,07,12,16,3.70
2016,10,07,12,17,6.40
2016,10,07,12,18,7.00
2016,10,07,12,19,2.70
2016,10,07,12,20,2.40
2016,10,07,12,21,2.90
2016,10,07,12,22,6.60
2016,10,07,12,23,8.60
2016,10,07,12,24,2.10
2016,10,07,12,25,3.70
2016,10,07,12,26,6.40
2016,10,07,12,27,6.70
2016,10,07,12,28,2.70
2016,10,07,12,29,3.80
2016,10,07,12,30,0.00
2016,10,07,12,31,1.50
2016,10,07,12,32,10.70
2016,10,07,12,33,6.00
2016,10,07,12,34,2.70
2016,10,07,12,35,3.40
2016,10,07,12,36,4.30
2016,10,07,12,37,1.60
2016,10,07,12,38,6.10
2016,10,07,12,39,4.70
2016,10,07,12,40,5.00
2016,10,07,12,41,1.40
2016,10,07,12,42,1.30
2016,10,07,12,43,5.10
2016,10,07,12,44,6.70
2016,10,07,12,45,6.70
2016,10,07,12,46,5.60
2016,10,07,12,47,3.50
2016,10,07,12,48,2.60
2016,10,07,12,49,5.90
2016,10,07,12,50,3.10
2016,10,07,12,51,5.80
2016,10,07,12,52,1.60
2016,10,07,12,53,6.40
2016,10,07,12,54,6.10
2016,10,07,12,55,3.40
2016,10,07,12,56,3.40
2016,10,07,12,57,6.20
2016,10,07,12,58,8.00
2016,10,07,12,59,7.50
2016,10,07,13,00,9.10
2016,10,07,13,01,5.90
2016,10,07,13,02,4.40
2016,10,07,13,03,5.50
2016,10,07,13,04,5.40
2016,10,07,13,05,7.30
2016,10,07,13,06,2.80
2016,10,07,13,07,5.80
2016,10,07,13,08,6.20
2016,10,07,13,09,6.60
2016,10,07,13,10,3.10
2016,10,07,13,11,2.40
2016,10,07,13,12,5.10
2016,10,07,13,13,5.40
2016,10,07,13,14,5.90
2016,10,07,13,15,1.80
2016,10,07,13,16,0.10
2016,10,07,13,17,2.40
2016,10,07,13,18,4.40
2016,10,07,13,19,4.10
2016,10,07,13,20,3.10
2016,10,07,13,21,10.80
2016,10,07,13,22,7.30
2016,10,07,13,23,3.10
2016,10,07,13,24,6.40
2016,10,07,13,25,7.00
2016,10,07,13,26,4.70
2016,10,07,13,27,5.30
2016,10,07,13,28,5.40
2016,10,07,13,29,2.70
2016,10,07,13,30,3.20
2016,10,07,13,31,4.40
2016,10,07,13,32,2.80
2016,10,07,13,33,4.70
2016,10,07,13,34,7.70
2016,10,07,13,35,8.00
2016,10,07,13,36,1.90
2016,10,07,13,37,7.60
2016,10,07,13,38,6.10
2016,10,07,13,39,4.50
2016,10,07,13,40,4.10
2016,10,07,13,41,8.10
2016,10,07,13,42,2.60
2016,10,07,13,43,2.00
2016,10,07,13,44,6.30
2016,10,07,13,45,6.90
2016,10,07,13,46,9.40
2016,10,07,13,47,6.40
2016,10,07,13,48,6.10
2016,10,07,13,49,4.70
2016,10,07,13,50,5.90
2016,10,07,13,51,6.30
2016,10,07,13,52,3.00
2016,10,07,13,53,6.80
2016,10,07,13,54,7.90
2016,10,07,13,55,2.80
2016,10,07,13,56,4.10
2016,10,07,13,57,4.00
2016,10,07,13,58,2.60
2016,10,07,13,59,2.30
2016,10,07,14,00,4.40
2016,10,07,14,01,4.10
2016,10,07,14,02,3.80
2016,10,07,14,03,4.20
2016,10,07,14,04,1.60
2016,10,07,14,05,6.70
2016,10,07,14,06,5.30
2016,10,07,14,07,5.10
2016,10,07,14,08,2.70
2016,10,07,14,09,1.10
2016,10,07,14,10,5.00
2016,10,07,14,11,4.80
2016,10,07,14,12,6.50
2016,10,07,14,13,6.40
2016,10,07,14,14,3.10
2016,10,07,14,15,4.90
2016,10,07,14,16,4.70
2016,10,07,14,17,4.20
2016,10,07,14,18,7.20
2016,10,07,14,19,10.00
2016,10,07,14,20,7.60
2016,10,07,14,21,7.20
2016,10,07,14,22,9.80
2016,10,07,14,23,4.80
2016,10,07,14,24,6.00
2016,10,07,14,25,7.40
2016,10,07,14,26,8.30
2016,10,07,14,27,7.40
2016,10,07,14,28,5.10
2016,10,07,14,29,1.80
2016,10,07,14,30,6.70
2016,10,07,14,31,7.60
2016,10,07,14,32,5.10
2016,10,07,14,33,3.00
2016,10,07,14,34,5.80
2016,10,07,14,35,9.10
2016,10,07,14,36,5.10
2016,10,07,14,37,5.70
2016,10,07,14,38,4.40
2016,10,07,14,39,5.30
2016,10,07,14,40,8.50
2016,10,07,14,41,7.10
2016,10,07,14,42,6.60
2016,10,07,14,43,0.70
2016,10,07,14,44,3.70
2016,10,07,14,45,7.00
2016,10,07,14,46,5.40
2016,10,07,14,47,8.20
2016,10,07,14,48,11.40
2016,10,07,14,49,5.10
2016,10,07,14,50,5.20
2016,10,07,14,51,5.90
2016,10,07,14,52,1.10
2016,10,07,14,53,3.90
2016,10,07,14,54,4.60
2016,10,07,14,55,7.20
2016,10,07,14,56,7.60
2016,10,07,14,57,4.10
2016,10,07,14,58,7.40
2016,10,07,14,59,2.70
2016,10,07,15,00,7.00
2016,10,07,15,01,2.60
2016,10,07,15,02,7.60
2016,10,07,15,03,5.70
2016,10,07,15,04,2.80
2016,10,07,15,05,3.30
2016,10,07,15,06,4.40
2016,10,07,15,07,4.80
2016,10,07,15,08,6.50
2016,10,07,15,09,3.70
2016,10,07,15,10,2.50
2016,10,07,15,11,1.80
2016,10,07,15,12,4.80
2016,10,07,15,13,2.10
2016,10,07,15,14,0.40
2016,10,07,15,15,0.00
2016,10,07,15,16,0.00
2016,10,07,15,17,0.50
2016,10,07,15,18,0.40
2016,10,07,15,19,0.80
2016,10,07,15,20,1.10
2016,10,07,15,21,2.30
2016,10,07,15,22,0.10
2016,10,07,15,23,2.40
2016,10,07,15,24,4.20
2016,10,07,15,25,2.10
2016,10,07,15,26,0.80
2016,10,07,15,27,0.10
2016,10,07,15,28,1.20
2016,10,07,15,29,0.20
2016,10,07,15,30,0.60
2016,10,07,15,31,0.20
2016,10,07,15,32,0.80
2016,10,07,15,33,2.00
2016,10,07,15,34,0.20
2016,10,07,15,35,0.60
2016,10,07,15,36,0.40
2016,10,07,15,37,2.10
2016,10,07,15,38,3.40
2016,10,07,15,39,2.60
2016,10,07,15,40,2.40
2016,10,07,15,41,0.00
2016,10,07,15,42,3.50
2016,10,07,15,43,0.20
2016,10,07,15,44,1.50
2016,10,07,15,45,0.00
2016,10,07,15,46,0.70
2016,10,07,15,47,1.10
2016,10,07,15,48,1.20
2016,10,07,15,49,2.80
2016,10,07,15,50,0.20
2016,10,07,15,51,0.20
2016,10,07,15,52,1.10
2016,10,07,15,53,0.80
2016,10,07,15,54,0.00
2016,10,07,15,55,0.30
2016,10,07,15,56,0.10
2016,10,07,15,57,0.10
2016,10,07,15,58,2.10
2016,10,07,15,59,0.00
2016,10,07,16,00,2.90
2016,10,07,16,01,1.20
2016,10,07,16,02,1.40
2016,10,07,16,03,0.00
2016,10,07,16,04,0.00
2016,10,07,16,05,0.10
2016,10,07,16,06,3.40
2016,10,07,16,07,2.20
2016,10,07,16,08,7.40
2016,10,07,16,09,2.40
2016,10,07,16,10,0.00
2016,10,07,16,11,0.00
2016,10,07,16,12,2.00
2016,10,07,16,13,4.50
2016,10,07,16,14,1.60
2016,10,07,16,15,0.10
2016,10,07,16,16,0.00
2016,10,07,16,17,0.00
2016,10,07,16,18,0.40
2016,10,07,16,19,0.00
2016,10,07,16,20,0.00
2016,10,07,16,21,1.80
2016,10,07,16,22,3.20
2016,10,07,16,23,0.20
2016,10,07,16,24,0.10
2016,10,07,16,25,5.10
2016,10,07,16,26,2.50
2016,10,07,16,27,0.70
2016,10,07,16,28,2.60
2016,10,07,16,29,0.20
2016,10,07,16,30,1.80
2016,10,07,16,31,0.40
2016,10,07,16,32,0.00
2016,10,07,16,33,0.00
2016,10,07,16,34,0.00
2016,10,07,16,35,3.40
2016,10,07,16,36,0.80
2016,10,07,16,37,0.20
2016,10,07,16,38,1.50
2016,10,07,16,39,0.00
2016,10,07,16,40,0.10
2016,10,07,16,41,1.00
2016,10,07,16,42,0.20
2016,10,07,16,43,0.00
2016,10,07,16,44,2.00
2016,10,07,16,45,0.40
2016,10,07,16,46,1.50
2016,10,07,16,47,1.30
2016,10,07,16,48,0.00
2016,10,07,16,49,0.00
2016,10,07,16,50,0.00
2016,10,07,16,51,0.40
2016,10,07,16,52,0.00
2016,10,07,16,53,0.20
2016,10,07,16,54,0.00
2016,10,07,16,55,0.60
2016,10,07,16,56,2.50
2016,10,07,16,57,1.10
2016,10,07,16,58,4.60
2016,10,07,16,59,0.40
2016,10,07,17,00,0.10
2016,10,07,17,01,0.00
2016,10,07,17,02,0.20
2016,10,07,17,03,0.60
2016,10,07,17,04,0.30
2016,10,07,17,05,0.00
2016,10,07,17,06,0.00
2016,10,07,17,07,0.00
2016,10,07,17,08,0.00
2016,10,07,17,09,0.00
2016,10,07,17,10,0.00
2016,10,07,17,11,0.90
2016,10,07,17,12,2.10
2016,10,07,17,13,0.10
2016,10,07,17,14,0.60
2016,10,07,17,15,0.50
2016,10,07,17,16,0.40
2016,10,07,17,17,0.90
2016,10,07,17,18,0.00
2016,10,07,17,19,0.00
2016,10,07,17,20,0.10
2016,10,07,17,21,0.00
2016,10,07,17,22,0.00
2016,10,07,17,23,0.00
2016,10,07,17,24,0.00
2016,10,07,17,25,0.00
2016,10,07,17,26,0.00
2016,10,07,17,27,0.00
2016,10,07,17,28,0.00
2016,10,07,17,29,0.80
2016,10,07,17,30,0.10
2016,10,07,17,31,0.00
2016,10,07,17,32,0.00
2016,10,07,17,33,0.00
2016,10,07,17,34,0.00
2016,10,07,17,35,0.00
2016,10,07,17,36,0.00
2016,10,07,17,37,0.00
2016,10,07,17,38,0.00
2016,10,07,17,39,0.30
2016,10,07,17,40,1.60
2016,10,07,17,41,0.00
2016,10,07,17,42,0.00
2016,10,07,17,43,0.00
2016,10,07,17,44,0.00
2016,10,07,17,45,0.00
2016,10,07,17,46,0.40
2016,10,07,17,47,0.20
2016,10,07,17,48,0.00
2016,10,07,17,49,0.00
2016,10,07,17,50,0.00
2016,10,07,17,51,0.00
2016,10,07,17,52,0.00
2016,10,07,17,53,0.30
2016,10,07,17,54,0.00
2016,10,07,17,55,0.00